[[{"header":{"parameterUnit":"m.s-1","parameterCategory":1,"la1":30.2992,"la2":30.254,"lo1":-89.0895,"lo2":-89.0443,"dy":0.0025,"dx":0.0025,"nx":19,"ny":19,"refTime":"2026-05-08T03:00:00:Z","depth":0,"parameterNumber":2,"parameterNumberName":"U-component_of_WINDS"},"data":[0,0,0,-3.6402,-3.6403,-3.6427,-3.6427,-3.6488,-3.6488,0,0,0,0,0,0,0,0,0,0,0,-3.6412,-3.6413,-3.6402,-3.6403,-3.6427,-3.6427,-3.6488,-3.6488,0,0,0,0,0,0,0,0,0,0,0,-3.6411,-3.6412,-3.6414,-3.6403,-3.6427,-3.6427,-3.6487,-3.6459,0,0,0,0,0,0,0,0,0,0,-3.643,-3.6456,-3.6412,-3.6414,-3.6403,-3.6427,-3.6427,-3.6457,-3.646,-3.6489,0,-3.6518,0,-3.6505,-3.6494,-3.6495,0,0,0,-3.639,-3.6453,-3.6444,-3.6414,-3.6404,-3.6427,-3.6413,-3.6458,-3.6463,-3.6494,-3.6519,-3.652,-3.6506,-3.6495,-3.6495,-3.6702,-3.6703,0,0,-3.6389,-3.6425,-3.6441,-3.6447,-3.6445,-3.6412,-3.6414,-3.646,-3.649,-3.6519,-3.6521,-3.6507,-3.6496,-3.6496,-3.67,-3.6702,0,0,0,-3.6393,-3.6425,-3.6414,-3.6446,-3.6448,-3.6413,-3.6415,-3.6488,-3.6482,-3.6522,-3.6507,-3.6496,-3.6497,-3.6699,-3.6701,-3.6815,0,0,0,-3.6392,-3.6428,-3.6414,-3.6437,-3.6448,-3.6468,-3.6442,-3.6478,-3.6482,-3.6507,-3.6496,-3.6498,-3.6697,-3.67,-3.6808,-3.6863,0,0,0,-3.6404,-3.6429,-3.6438,-3.6439,-3.6451,-3.6467,-3.6462,-3.6478,-3.6475,-3.6495,-3.6498,-3.6696,-3.6699,-3.6802,-3.6853,-3.693,0,0,0,-3.6428,-3.6539,-3.6441,-3.6559,-3.6451,-3.6536,-3.6461,-3.6523,-3.6554,-3.6496,-3.6697,-3.6701,-3.68,-3.6847,-3.6924,-3.7003,-3.7038,0,0,-3.6588,-3.6559,-3.6626,-3.6539,-3.6651,-3.653,-3.6659,-3.6652,-3.662,-3.6677,-3.6681,-3.681,-3.6852,-3.6929,-3.7223,-3.7252,0,0,0,-3.6689,-3.6738,-3.6759,-3.6791,-3.6788,-3.6791,-3.676,-3.6758,-3.6804,-3.6657,-3.6856,-3.688,-3.6924,-3.696,-3.6984,-3.702,-3.6718,-3.6718,-3.6718,-3.6971,-3.6924,-3.7031,-3.6987,-3.7018,-3.6986,-3.7007,-3.6998,-3.6941,-3.699,-3.7007,-3.7191,-3.7235,-3.7253,-3.7291,-3.7043,-3.7043,-3.7044,-3.7044,-3.7203,-3.7265,-3.7187,-3.7263,-3.7213,-3.7277,-3.725,-3.7208,-3.726,-3.7174,-3.721,-3.7122,-3.7286,-3.7316,-3.7052,-3.7051,-3.705,-3.7049,-3.7048,-3.7384,-3.7406,-3.74,-3.744,-3.7477,-3.7428,-3.7483,-3.7434,-3.7389,-3.7424,-3.7439,-3.7437,-3.743,-3.7434,-3.7435,-3.7435,-3.7436,-3.7436,-3.7437,-3.7575,-3.7565,-3.7616,-3.7623,-3.7637,-3.7649,-3.7617,-3.763,-3.7631,-3.7592,-3.7592,-3.7532,-3.731,-3.7256,-3.7447,-3.7445,-3.7444,-3.7443,-3.7442,-3.7832,-3.7766,-3.7846,-3.786,-3.7864,-3.7904,-3.7841,-3.7871,-3.7874,-3.7903,-3.7835,-3.7677,-3.7644,-3.7625,-3.758,-3.7843,-3.7843,-3.7843,-3.7843,-3.7987,-3.7964,-3.8036,-3.8061,-3.8081,-3.8032,-3.8125,-3.8102,-3.8067,-3.8067,-3.8021,-3.7957,-3.7939,-3.7917,-3.7891,-3.7848,-3.8174,-3.8174,-3.8174,-3.8143,-3.812,-3.8209,-3.8174,-3.8173,-3.8174,-3.8261,-3.8294,-3.8241,-3.8187,-3.8065,-3.8052,-3.7948,-3.7916,-3.7862,-3.7822,-3.7744,0,0]},{"header":{"parameterUnit":"m.s-1","parameterCategory":1,"la1":30.2992,"la2":30.254,"lo1":-89.0895,"lo2":-89.0443,"dy":0.0025,"dx":0.0025,"nx":19,"ny":19,"refTime":"2026-05-08T03:00:00:Z","depth":0,"parameterNumber":3,"parameterNumberName":"V-component_of_WINDS"},"data":[0,0,0,-1.631,-1.6309,-1.6259,-1.6259,-1.6207,-1.6207,0,0,0,0,0,0,0,0,0,0,0,-1.6333,-1.6333,-1.631,-1.6309,-1.6259,-1.6259,-1.6207,-1.6207,0,0,0,0,0,0,0,0,0,0,0,-1.6333,-1.6333,-1.6333,-1.6309,-1.6259,-1.6259,-1.6207,-1.624,0,0,0,0,0,0,0,0,0,0,-1.6287,-1.6316,-1.6333,-1.6333,-1.6309,-1.626,-1.6259,-1.6242,-1.6238,-1.6235,0,-1.6236,0,-1.6221,-1.6204,-1.6204,0,0,0,-1.6302,-1.6319,-1.6299,-1.6333,-1.6308,-1.626,-1.628,-1.624,-1.6236,-1.6231,-1.6235,-1.6233,-1.622,-1.6204,-1.6204,-1.6211,-1.6211,0,0,-1.6305,-1.6328,-1.6301,-1.6297,-1.6306,-1.6282,-1.6279,-1.6237,-1.6243,-1.6235,-1.6231,-1.6219,-1.6204,-1.6203,-1.6211,-1.6211,0,0,0,-1.6318,-1.6331,-1.631,-1.6299,-1.6289,-1.628,-1.6277,-1.6244,-1.6236,-1.623,-1.6218,-1.6203,-1.6203,-1.621,-1.6211,-1.6251,0,0,0,-1.6319,-1.6338,-1.6312,-1.6326,-1.629,-1.6266,-1.6285,-1.6239,-1.6233,-1.6219,-1.6203,-1.6203,-1.621,-1.6211,-1.6249,-1.6266,0,0,0,-1.6334,-1.6339,-1.6335,-1.6327,-1.6307,-1.6267,-1.6256,-1.6237,-1.6226,-1.6204,-1.6202,-1.621,-1.6211,-1.6248,-1.6263,-1.6275,0,0,0,-1.6355,-1.6371,-1.6336,-1.6349,-1.6307,-1.6293,-1.6256,-1.6243,-1.6229,-1.6203,-1.621,-1.6211,-1.6247,-1.6261,-1.6274,-1.629,-1.6299,0,0,-1.6388,-1.6376,-1.6381,-1.6349,-1.6346,-1.6298,-1.6301,-1.6265,-1.6241,-1.6222,-1.6222,-1.625,-1.6263,-1.6275,-1.6341,-1.6348,0,0,0,-1.6399,-1.6403,-1.6398,-1.6386,-1.636,-1.6339,-1.63,-1.6287,-1.627,-1.6236,-1.6257,-1.6264,-1.627,-1.6276,-1.6283,-1.6286,-1.6215,-1.6215,-1.6215,-1.6477,-1.6447,-1.6454,-1.6418,-1.6407,-1.6368,-1.6356,-1.6331,-1.6302,-1.6308,-1.6302,-1.6346,-1.6355,-1.6359,-1.6363,-1.6308,-1.6308,-1.6308,-1.6308,-1.6522,-1.6523,-1.6486,-1.648,-1.6448,-1.6442,-1.6404,-1.6385,-1.6373,-1.6347,-1.6351,-1.6325,-1.6368,-1.637,-1.6311,-1.631,-1.631,-1.631,-1.631,-1.657,-1.6565,-1.655,-1.653,-1.6518,-1.648,-1.6472,-1.6442,-1.6414,-1.6418,-1.6409,-1.6408,-1.6403,-1.6416,-1.6416,-1.6416,-1.6416,-1.6416,-1.6416,-1.6626,-1.6607,-1.6604,-1.6579,-1.6568,-1.6549,-1.651,-1.6498,-1.6477,-1.6455,-1.6455,-1.6426,-1.6378,-1.6367,-1.6418,-1.6418,-1.6418,-1.6418,-1.6417,-1.6682,-1.6665,-1.6661,-1.665,-1.6618,-1.6608,-1.657,-1.6548,-1.6533,-1.653,-1.6501,-1.647,-1.6455,-1.645,-1.644,-1.6507,-1.6507,-1.6507,-1.6507,-1.6722,-1.6712,-1.6702,-1.6687,-1.6668,-1.6634,-1.663,-1.66,-1.6566,-1.6555,-1.654,-1.6525,-1.6521,-1.6508,-1.6502,-1.6492,-1.6571,-1.6572,-1.6572,-1.6755,-1.6742,-1.6745,-1.6713,-1.6686,-1.6663,-1.6658,-1.6641,-1.6598,-1.6574,-1.6545,-1.6543,-1.6517,-1.6511,-1.6485,-1.6476,-1.6458,0,0]}]]